CZ-6A DEB, 56619

Orbit data source: Space-Track

CZ-6A DEB, 56619 is space debris in SSO originally from a launch on Fri, 11 Nov 2022 UTC launched from the Taiyaun Space Center, China (TSC). Debris objects in space refer to the collection of defunct objects orbiting the Earth. Examples of debris include non-operational satellites, rocket bodies, and fragments generated from explosions, collisions, or faulty payload assembly.

Loading next visibility...
Identifier
56619, 2022-151AET
Orbit
SSO
Country
Flag of CNCN / PRC
Related business
Manufacturer
SAST
Mission
Spacecraft
Bus & Motor
Unknown
Mass
Unknown
Launch date (UTC)
2022-11-11 (4 years ago)
Launch vehicle
Unknown
Launch site
Taiyaun Space Center, China (TSC)
Object type
Payload
Rocket body
Debris
Shape & HBR
Unknown shape, 0.1 m
Radar Cross Section
Small (<0.1 m²)

Expand to show TLE details & history
Last TLE update: 2 weeks ago

TLE from 2 weeks ago
0 CZ-6A DEB
1 56619U 22151AET 26225.28282770  .00000079  00000-0  45736-4 0  9996
2 56619  98.5703 226.2439 0074014 235.3909 124.0279 14.30546189172710
Epoch: 2026-08-13T06:47Z
TLE epoch observation values (Epoch: 2026-08-13T06:47:16.313Z)
Latitude
0.00007°
Longitude
162.70128°
Altitude
822.802 km
Speed
7.426 km/s
True Right ascension
15h 04m 58s
True Declination
0° 00' 00"
Sunlit
Object was in daylight at epoch
Visualization orbit readout
Latitude
Unknown
Longitude
Unknown
Altitude
Unknown
Speed
Unknown
Apparent Right ascension
Unknown
Apparent Declination
Unknown
Sunlit
N/A
Visualization observer readout
Local Sidereal Time
21:13:01
Azimuth
Unknown
Elevation
Unknown
Doppler factor
Unknown
Orbital elements
Apogee altitude
840.076 km
Perigee altitude
734.011 km
Semi-major axis
7,165.18 km
Eccentricity
0.0074
Inclination
98.5703°
RAAN
226.2439°
Arg. of periapsis
235.3909°
True anomaly
124.72717°
Mean anomaly
124.0279°
Eccentric anomaly
124.3779°
Mean motion
3.57851 °/min
Orbital period
100.6 mins
BSTAR
0.000045736
Loading maneuver chart data...
Computing Atmospheric mass density...
Loading historical data...
Loading historical data...
Loading historical data...
Loading historical data...
Loading historical data...
Loading historical data...
Loading historical data...

Documentation

Showing up to 5 results
|